LINCON Weather Reports


Display with metric or nautical units.
time (UTC)temp
F
wind
direction
speed
MPH
gust
MPH
rain 1hr
in
rain 24hr
in
rain mn
in
humidity
%
barometer
mb
20260903161730 59 0 0.0 3.0 0.06 0.80 0.46 99 1004.6
20260903161230 59 0 0.0 3.0 0.06 0.80 0.46 99 1004.6
20260903160730 59 218 0.0 3.0 0.06 0.80 0.46 99 1004.7
20260903160230 59 204 0.0 9.0 0.06 0.80 0.46 99 1004.7
20260903155730 59 0 0.0 9.0 0.06 0.80 0.46 99 1004.6
20260903155229 59 58 0.0 9.0 0.06 0.80 0.46 99 1004.6
20260903154730 59 200 0.0 5.0 0.06 0.80 0.46 99 1004.6
20260903154230 59 208 0.0 5.0 0.06 0.80 0.46 99 1004.6
20260903153730 59 0 0.0 5.0 0.06 0.80 0.46 99 1004.6
20260903153230 59 155 0.0 5.0 0.06 0.82 0.46 99 1004.6
20260903152730 59 240 1.0 5.0 0.06 0.82 0.46 99 1004.7
20260903152230 59 75 0.0 5.0 0.03 0.82 0.40 99 1004.6
20260903151730 59 0 0.0 5.0 0.03 0.82 0.40 99 1004.6
20260903151230 58 89 0.0 5.0 0.13 0.82 0.40 100 1004.6
20260903150732 58 78 0.0 3.0 0.13 0.82 0.40 99 1004.6
20260903150230 57 0 0.0 4.0 0.14 0.82 0.40 99 1004.5
20260903145730 57 0 0.0 4.0 0.14 0.82 0.40 99 1004.5
20260903145229 56 56 0.0 4.0 0.16 0.82 0.40 99 1004.4
20260903144729 56 288 0.0 2.0 0.16 0.82 0.40 99 1004.4
20260903144229 56 0 0.0 0.0 0.18 0.82 0.40 98 1004.4
20260903143729 56 0 0.0 9.0 0.18 0.82 0.40 98 1004.4
20260903143230 56 284 0.0 9.0 0.18 0.66 0.40 98 1004.6
20260903142729 56 281 0.0 9.0 0.18 0.66 0.40 98 1004.7
20260903142229 56 232 0.0 18.0 0.16 0.66 0.39 98 1004.5
20260903141729 56 211 0.0 18.0 0.16 0.66 0.38 98 1004.3
20260903141230 56 228 1.0 18.0 0.09 0.66 0.31 98 1004.5
20260903140729 56 0 6.0 6.0 0.09 0.66 0.27 99 1004.6
20260903140230 56 0 0.0 9.0 0.08 0.66 0.26 98 1004.6
20260903135729 56 190 0.0 9.0 0.08 0.66 0.26 98 1004.6
20260903135230 56 158 0.0 9.0 0.06 0.66 0.24 98 1004.6
20260903134729 56 235 2.0 5.0 0.06 0.66 0.24 99 1004.6
20260903134229 56 219 1.0 4.0 0.07 0.66 0.23 98 1004.5
20260903133729 56 0 0.0 0.0 0.07 0.66 0.22 98 1004.4
20260903133229 56 0 0.0 5.0 0.06 0.59 0.22 98 1004.4
20260903132729 56 0 0.0 5.0 0.06 0.59 0.21 98 1004.3
20260903132229 56 119 0.0 5.0 0.06 0.59 0.21 98 1004.3
20260903131730 56 130 0.0 6.0 0.06 0.59 0.21 98 1004.3
20260903131229 57 81 0.0 6.0 0.03 0.59 0.20 98 1004.4
20260903130729 57 193 0.0 6.0 0.03 0.59 0.19 98 1004.4
20260903130229 57 197 0.0 13.0 0.03 0.59 0.18 98 1004.6
20260903125729 57 187 1.0 13.0 0.03 0.59 0.18 98 1004.5
20260903125229 57 201 0.0 13.0 0.03 0.59 0.18 98 1004.5
20260903124730 57 197 3.0 7.0 0.03 0.59 0.18 99 1004.4
20260903124231 57 303 3.0 7.0 0.00 0.59 0.17 99 1004.6
20260903123730 57 201 0.0 12.0 0.00 0.59 0.15 99 1004.5
20260903123229 57 81 0.0 12.0 0.00 0.60 0.15 98 1004.3
20260903122729 57 105 0.0 12.0 0.00 0.60 0.15 98 1004.3
20260903122232 57 89 0.0 9.0 0.00 0.60 0.15 98 1004.4
20260903121729 57 173 1.0 5.0 0.00 0.60 0.15 98 1004.5
20260903121229 57 212 0.0 5.0 0.00 0.60 0.15 98 1004.5
20260903120729 57 0 0.0 0.0 0.00 0.60 0.15 98 1004.6
20260903120229 57 0 0.0 6.0 0.00 0.60 0.15 98 1004.5
20260903115729 57 191 0.0 6.0 0.00 0.60 0.15 98 1004.5
20260903115229 57 242 0.0 6.0 0.01 0.60 0.15 98 1004.7
20260903114729 57 85 0.0 8.0 0.01 0.60 0.15 98 1004.6
20260903114229 57 109 0.0 8.0 0.01 0.60 0.15 98 1004.6
20260903113729 57 200 0.0 8.0 0.01 0.60 0.15 98 1004.8
20260903113229 57 99 0.0 8.0 0.03 0.59 0.15 97 1004.7
20260903112729 57 191 1.0 10.0 0.03 0.59 0.15 98 1004.8
20260903112229 58 168 0.0 10.0 0.07 0.59 0.15 97 1004.8
20260903111729 58 210 0.0 10.0 0.07 0.59 0.15 97 1004.7
20260903111229 58 257 0.0 11.0 0.09 0.59 0.15 98 1004.7
20260903110729 58 182 2.0 11.0 0.09 0.59 0.15 97 1004.8
20260903110229 58 197 3.0 11.0 0.14 0.59 0.15 98 1004.8
20260903105729 58 236 1.0 10.0 0.14 0.59 0.15 97 1004.7
20260903105229 58 303 3.0 12.0 0.14 0.59 0.15 97 1004.7
20260903104729 59 205 0.0 12.0 0.14 0.59 0.15 97 1004.6
20260903104229 59 187 6.0 12.0 0.14 0.59 0.14 98 1004.7
20260903103729 59 224 3.0 7.0 0.14 0.59 0.14 97 1004.8
20260903103229 59 177 1.0 10.0 0.12 0.45 0.13 97 1004.8
20260903102729 59 204 2.0 10.0 0.12 0.45 0.12 97 1004.7
20260903102229 59 211 1.0 10.0 0.08 0.45 0.12 97 1004.8
20260903101729 59 240 4.0 9.0 0.08 0.45 0.08 97 1004.7
20260903101229 59 197 0.0 9.0 0.06 0.45 0.06 97 1004.7
20260903100730 59 203 0.0 9.0 0.06 0.45 0.06 96 1004.8
20260903100229 59 212 1.0 7.0 0.01 0.45 0.05 96 1004.8
20260903095729 59 205 5.0 5.0 0.01 0.45 0.02 96 1004.8
20260903095229 59 191 0.0 5.0 0.00 0.45 0.00 96 1004.8
20260903094729 59 0 0.0 5.0 0.00 0.45 0.00 96 1004.8
20260903094229 59 191 0.0 5.0 0.00 0.45 0.00 96 1004.9
20260903093729 59 215 0.0 5.0 0.00 0.45 0.00 96 1004.9
20260903093231 59 0 0.0 0.0 0.00 0.45 0.00 96 1005.0
20260903092731 59 0 0.0 5.0 0.00 0.45 0.00 96 1004.9
20260903092231 59 54 0.0 5.0 0.00 0.45 0.00 96 1004.9
20260903091730 59 204 0.0 5.0 0.00 0.45 0.00 96 1004.9
20260903091229 59 204 1.0 7.0 0.00 0.45 0.00 96 1005.0
20260903090730 59 138 0.0 7.0 0.00 0.45 0.00 96 1005.1
20260903090229 59 138 0.0 7.0 0.00 0.45 0.00 96 1004.9
20260903085729 59 109 0.0 9.0 0.00 0.45 0.00 96 1004.8
20260903085229 59 145 1.0 9.0 0.00 0.45 0.00 96 1004.8
20260903084729 59 260 1.0 9.0 0.00 0.45 0.00 96 1004.8
20260903084229 59 187 0.0 6.0 0.00 0.45 0.00 96 1004.8
20260903083732 58 130 0.0 6.0 0.00 0.45 0.00 96 1004.8
20260903083229 58 67 0.0 3.0 0.00 0.45 0.00 96 1004.8
20260903082729 58 0 0.0 3.0 0.00 0.45 0.00 96 1004.8
20260903082229 58 67 0.0 9.0 0.00 0.45 0.00 96 1004.8
20260903081731 58 134 0.0 9.0 0.00 0.45 0.00 96 1004.9
20260903081229 58 196 0.0 9.0 0.00 0.45 0.00 96 1005.0
20260903080729 58 0 0.0 5.0 0.00 0.45 0.00 96 1005.0
20260903080229 58 190 0.0 5.0 0.00 0.45 0.00 96 1005.1
20260903075729 58 0 0.0 5.0 0.00 0.45 0.00 96 1005.1
20260903075229 58 214 0.0 5.0 0.00 0.45 0.00 96 1005.1
20260903074729 58 172 0.0 4.0 0.00 0.45 0.00 97 1005.2
20260903074231 58 208 0.0 4.0 0.00 0.45 0.00 97 1005.1
20260903073729 58 0 0.0 0.0 0.00 0.45 0.00 97 1005.2
20260903073229 58 0 0.0 0.0 0.00 0.45 0.00 97 1005.2
20260903072729 58 0 0.0 5.0 0.00 0.45 0.00 97 1005.1
20260903072229 58 0 0.0 5.0 0.00 0.45 0.00 97 1005.1
20260903071729 58 208 0.0 5.0 0.00 0.45 0.00 97 1005.1
20260903071229 58 156 0.0 6.0 0.00 0.45 0.00 97 1005.1
20260903070729 59 134 0.0 6.0 0.00 0.45 0.00 97 1005.0
20260903070229 58 134 0.0 6.0 0.00 0.45 0.00 97 1005.0
20260903065729 58 112 0.0 4.0 0.00 0.45 0.00 97 1005.0
20260903065229 59 0 0.0 7.0 0.00 0.45 0.00 97 1005.0
20260903064729 58 0 0.0 7.0 0.00 0.45 0.00 97 1005.0
20260903064229 58 114 0.0 7.0 0.00 0.45 0.00 97 1005.1
20260903063729 58 112 0.0 6.0 0.00 0.45 0.00 97 1005.0
20260903063229 58 133 0.0 7.0 0.00 0.45 0.00 97 1005.1
20260903062729 58 0 0.0 7.0 0.00 0.45 0.00 97 1005.1
20260903062229 58 93 0.0 7.0 0.00 0.45 0.00 97 1005.1
20260903061729 58 0 0.0 4.0 0.00 0.45 0.00 97 1005.2
20260903061229 58 275 0.0 4.0 0.00 0.45 0.00 97 1005.2
20260903060729 58 275 0.0 3.0 0.00 0.45 0.00 97 1005.3
20260903060229 58 0 0.0 3.0 0.00 0.45 0.00 97 1005.2
20260903055729 58 275 0.0 3.0 0.00 0.45 0.00 97 1005.2
20260903055229 58 275 0.0 5.0 0.00 0.45 0.00 97 1005.2
20260903054729 58 79 0.0 5.0 0.00 0.45 0.00 97 1005.3
20260903054229 58 254 0.0 5.0 0.00 0.45 0.00 96 1005.3
20260903053729 58 204 0.0 4.0 0.00 0.45 0.00 97 1005.4
20260903053229 58 218 0.0 5.0 0.00 0.45 0.00 96 1005.4
20260903052729 58 183 0.0 5.0 0.00 0.45 0.00 96 1005.3
20260903052229 58 214 0.0 5.0 0.00 0.45 0.00 96 1005.3
20260903051729 58 217 1.0 4.0 0.00 0.45 0.00 96 1005.3
20260903051229 58 96 0.0 3.0 0.00 0.45 0.00 96 1005.2
20260903050729 58 0 0.0 2.0 0.00 0.45 0.00 96 1005.2
20260903050229 58 0 0.0 2.0 0.00 0.45 0.00 96 1005.2
20260903045729 58 152 0.0 4.0 0.00 0.45 0.00 96 1005.2
20260903045229 58 0 0.0 4.0 0.00 0.45 0.00 96 1005.2
20260903044729 58 184 0.0 4.0 0.00 0.45 0.00 96 1005.2
20260903044229 58 0 0.0 3.0 0.00 0.45 0.00 96 1005.2
20260903043729 58 184 0.0 3.0 0.00 0.45 0.00 96 1005.2
20260903043229 58 0 0.0 0.0 0.00 0.45 0.00 96 1005.2
20260903042729 58 0 0.0 0.0 0.00 0.45 0.00 96 1005.2
20260903042229 58 0 0.0 0.0 0.00 0.45 0.00 96 1005.2
20260903041729 58 0 0.0 2.0 0.00 0.45 0.00 96 1005.1
20260903041229 58 0 0.0 2.0 0.00 0.45 0.00 96 1005.1
20260903040729 58 162 0.0 2.0 0.00 0.45 0.00 96 1005.1
20260903040229 58 0 0.0 0.0 0.00 0.45 0.00 96 1005.1
20260903035729 58 0 0.0 0.0 0.00 0.45 0.00 95 1005.1
20260903035231 58 0 0.0 7.0 0.00 0.45 0.00 95 1005.0
20260903034729 58 235 0.0 7.0 0.00 0.45 0.00 95 1004.9
20260903034229 59 221 0.0 7.0 0.00 0.45 0.00 95 1004.9
20260903033729 59 191 2.0 6.0 0.00 0.45 0.00 95 1004.8
20260903033230 59 187 2.0 9.0 0.00 0.45 0.00 95 1004.8
20260903032729 59 0 0.0 9.0 0.00 0.45 0.00 95 1004.7
20260903032230 59 231 0.0 9.0 0.00 0.45 0.00 95 1004.7
20260903031729 59 214 2.0 8.0 0.00 0.45 0.00 95 1004.7
20260903031229 59 289 3.0 8.0 0.00 0.45 0.00 95 1004.7
20260903030729 59 0 0.0 5.0 0.00 0.45 0.00 94 1004.6
20260903030229 59 239 0.0 8.0 0.00 0.45 0.00 94 1004.6
20260903025729 59 0 0.0 8.0 0.00 0.45 0.00 93 1004.6
20260903025229 59 217 0.0 8.0 0.00 0.45 0.00 93 1004.6
20260903024729 59 183 0.0 3.0 0.00 0.45 0.00 93 1004.6
20260903024229 60 172 0.0 3.0 0.00 0.45 0.00 92 1004.6
20260903023729 59 0 0.0 0.0 0.00 0.45 0.00 91 1004.5
20260903023229 60 0 0.0 8.0 0.00 0.45 0.00 91 1004.6
20260903022729 60 172 0.0 8.0 0.00 0.45 0.00 90 1004.6
20260903022229 60 204 0.0 8.0 0.00 0.45 0.00 90 1004.6
20260903021729 60 0 0.0 8.0 0.00 0.45 0.00 89 1004.6
20260903021229 60 219 0.0 8.0 0.00 0.45 0.00 88 1004.6
20260903020729 60 186 0.0 7.0 0.00 0.45 0.00 88 1004.6
20260903020229 60 218 0.0 5.0 0.00 0.45 0.00 87 1004.5
20260903015729 61 190 2.0 8.0 0.00 0.45 0.00 87 1004.5
20260903015229 61 187 0.0 8.0 0.00 0.45 0.00 86 1004.4
20260903014729 61 224 0.0 8.0 0.00 0.45 0.00 86 1004.4
20260903014229 61 203 3.0 7.0 0.00 0.45 0.00 85 1004.4
20260903013729 62 194 1.0 12.0 0.00 0.45 0.00 85 1004.4
20260903013229 62 254 0.0 12.0 0.00 0.45 0.00 84 1004.4
20260903012729 62 288 4.0 12.0 0.00 0.45 0.00 84 1004.4
20260903012229 62 203 0.0 11.0 0.00 0.45 0.00 84 1004.4
20260903011729 62 256 4.0 11.0 0.00 0.45 0.00 85 1004.4
20260903011229 62 250 5.0 13.0 0.00 0.45 0.00 85 1004.4
20260903010729 62 205 6.0 13.0 0.00 0.45 0.00 86 1004.3
20260903010229 62 219 2.0 13.0 0.00 0.45 0.00 85 1004.3
20260903005729 62 260 3.0 11.0 0.00 0.45 0.00 85 1004.3
20260903005229 62 231 5.0 9.0 0.00 0.45 0.00 84 1004.2
20260903004729 62 222 5.0 11.0 0.00 0.45 0.00 84 1004.2
20260903004229 62 232 5.0 11.0 0.00 0.45 0.00 83 1004.2
20260903003729 63 204 6.0 11.0 0.00 0.45 0.00 83 1004.1
20260903003229 63 196 4.0 11.0 0.00 0.45 0.00 83 1004.1
20260903002729 62 222 6.0 11.0 0.00 0.45 0.00 83 1004.1
20260903002230 63 250 5.0 11.0 0.00 0.45 0.00 82 1004.1
20260903001729 63 287 6.0 13.0 0.00 0.45 0.00 83 1004.0
20260903001229 63 263 5.0 13.0 0.00 0.45 0.00 83 1003.9
20260903000729 63 187 6.0 13.0 0.00 0.45 0.00 84 1003.8
20260903000229 63 240 3.0 10.0 0.00 0.45 0.00 87 1003.7
20260902235729 63 228 5.0 10.0 0.00 0.45 0.00 87 1003.8
20260902235229 63 245 4.0 10.0 0.00 0.45 0.00 88 1003.7
20260902234729 64 177 6.0 8.0 0.00 0.45 0.00 88 1003.6
20260902234229 63 274 4.0 8.0 0.00 0.45 0.00 89 1003.6
20260902233729 63 207 0.0 7.0 0.00 0.45 0.00 90 1003.5
20260902233229 64 177 3.0 7.0 0.00 0.45 0.00 91 1003.4
20260902232729 64 203 1.0 6.0 0.00 0.45 0.45 92 1003.4
20260902232229 64 0 0.0 0.0 0.00 0.45 0.45 94 1003.4
20260902231729 64 0 0.0 5.0 0.00 0.45 0.45 94 1003.4
20260902231229 64 152 0.0 5.0 0.00 0.45 0.45 96 1003.4
20260902230729 64 180 0.0 5.0 0.00 0.45 0.45 96 1003.3
20260902230229 64 193 0.0 5.0 0.00 0.45 0.45 97 1003.2
20260902225729 64 193 0.0 5.0 0.00 0.45 0.45 97 1003.2
20260902225229 64 198 0.0 6.0 0.01 0.45 0.45 97 1003.2
20260902224729 64 257 0.0 6.0 0.01 0.45 0.45 97 1003.1
20260902224229 63 196 0.0 6.0 0.01 0.45 0.45 98 1003.0
20260902223729 63 207 0.0 9.0 0.01 0.45 0.45 98 1003.0
20260902223229 63 267 0.0 9.0 0.01 0.45 0.45 98 1002.9
20260902222729 63 288 0.0 9.0 0.01 0.45 0.45 99 1002.9
20260902222230 62 246 0.0 6.0 0.01 0.45 0.45 99 1002.9
20260902221729 62 295 0.0 6.0 0.01 0.45 0.45 99 1002.9
20260902221229 62 0 0.0 0.0 0.01 0.45 0.45 99 1002.9
20260902220729 61 0 0.0 6.0 0.01 0.45 0.45 99 1002.8
20260902220229 61 0 0.0 6.0 0.02 0.45 0.45 99 1002.8
20260902215729 60 271 0.0 6.0 0.02 0.45 0.45 99 1002.9
20260902215229 60 0 0.0 6.0 0.01 0.45 0.45 99 1002.8
20260902214729 60 219 0.0 6.0 0.01 0.44 0.44 99 1002.8
20260902214229 60 0 0.0 5.0 0.01 0.44 0.44 98 1002.7
20260902213729 60 201 0.0 5.0 0.01 0.44 0.44 98 1002.6
20260902213229 60 0 0.0 5.0 0.01 0.44 0.44 98 1002.5
20260902212729 60 211 0.0 5.0 0.01 0.44 0.44 98 1002.5
20260902212231 60 0 1.0 5.0 0.02 0.44 0.44 99 1002.5
20260902211729 60 0 0.0 5.0 0.02 0.44 0.44 99 1002.4
20260902211229 60 194 0.0 5.0 0.02 0.44 0.44 99 1002.3
20260902210729 59 191 1.0 2.0 0.02 0.44 0.44 98 1002.4
20260902210229 59 0 0.0 0.0 0.01 0.44 0.44 98 1002.4
20260902205729 59 0 0.0 3.0 0.01 0.43 0.43 98 1002.5
20260902205229 59 0 0.0 3.0 0.01 0.43 0.43 98 1002.4
20260902204729 59 0 0.0 3.0 0.01 0.43 0.43 98 1002.3
20260902204229 59 177 0.0 5.0 0.02 0.43 0.43 99 1002.2
20260902203729 59 218 0.0 5.0 0.02 0.43 0.43 98 1002.1
20260902203229 59 218 1.0 5.0 0.03 0.43 0.43 98 1002.1
20260902202729 59 177 0.0 10.0 0.03 0.43 0.43 98 1001.9
20260902202229 59 175 0.0 10.0 0.03 0.43 0.43 98 1001.8
20260902201729 59 273 0.0 10.0 0.03 0.42 0.42 98 1001.8
20260902201229 59 200 0.0 13.0 0.04 0.42 0.42 98 1001.6
20260902200729 59 268 5.0 13.0 0.04 0.42 0.42 98 1001.6
20260902200229 59 217 3.0 13.0 0.06 0.42 0.42 98 1001.5
20260902195729 59 278 4.0 23.0 0.06 0.42 0.42 98 1001.5
20260902195229 59 280 7.0 23.0 0.10 0.42 0.42 98 1001.5
20260902194729 59 226 6.0 23.0 0.10 0.42 0.42 98 1001.5
20260902194229 59 201 11.0 18.0 0.13 0.41 0.41 98 1001.4
20260902193729 59 189 7.0 18.0 0.13 0.41 0.41 98 1001.4
20260902193229 59 200 10.0 15.0 0.15 0.41 0.41 98 1001.3
20260902192729 59 225 5.0 15.0 0.15 0.40 0.40 99 1001.4
20260902192229 59 194 7.0 15.0 0.16 0.39 0.39 99 1001.4
20260902191729 59 201 10.0 11.0 0.16 0.39 0.39 99 1001.2
20260902191229 59 210 1.0 14.0 0.16 0.39 0.39 99 1001.2
20260902190729 59 184 0.0 14.0 0.16 0.38 0.38 99 1001.2
20260902190229 59 156 0.0 14.0 0.15 0.37 0.37 99 1001.1
20260902185729 59 67 2.0 11.0 0.15 0.36 0.36 99 1001.2
20260902185231 59 85 0.0 11.0 0.11 0.34 0.34 99 1001.0
20260902184729 59 72 2.0 11.0 0.11 0.32 0.32 99 1000.9
20260902184229 58 130 1.0 11.0 0.07 0.30 0.30 99 1000.9
20260902183729 59 70 0.0 11.0 0.07 0.29 0.29 99 1000.9
20260902183228 58 109 2.0 10.0 0.04 0.27 0.27 99 1000.7
20260902182729 59 103 1.0 10.0 0.04 0.25 0.25 99 1000.7
20260902182228 59 71 4.0 13.0 0.03 0.24 0.24 99 1000.6
20260902181729 58 190 0.0 13.0 0.03 0.23 0.23 99 1000.6
20260902181229 58 86 3.0 13.0 0.03 0.22 0.22 99 1000.6
20260902180728 58 81 1.0 10.0 0.03 0.22 0.22 99 1000.6
20260902180229 58 109 3.0 9.0 0.03 0.22 0.22 99 1000.4
20260902175729 58 177 3.0 14.0 0.03 0.21 0.21 99 1000.4
20260902175228 58 102 3.0 14.0 0.05 0.21 0.21 99 1000.3
20260902174729 58 128 2.0 14.0 0.05 0.21 0.21 99 1000.3
20260902174229 58 110 3.0 11.0 0.06 0.21 0.21 99 1000.2
20260902173729 58 89 5.0 11.0 0.06 0.21 0.21 98 1000.2
20260902173228 58 86 4.0 13.0 0.08 0.21 0.21 98 1000.2
20260902172729 58 116 5.0 13.0 0.08 0.21 0.21 98 1000.1
20260902172228 58 93 3.0 13.0 0.07 0.21 0.21 98 1000.2
20260902171728 58 74 5.0 19.0 0.07 0.20 0.20 98 1000.1
20260902171229 58 102 3.0 19.0 0.07 0.20 0.20 98 1000.2
20260902170728 58 123 8.0 19.0 0.07 0.19 0.19 98 1000.2
20260902170228 58 196 6.0 11.0 0.07 0.19 0.19 98 1000.3
20260902165728 58 117 6.0 11.0 0.07 0.18 0.18 98 1000.4
20260902165228 58 133 3.0 11.0 0.05 0.17 0.17 98 1000.5
20260902164728 58 81 1.0 11.0 0.05 0.16 0.16 98 1000.6
20260902164228 58 121 5.0 11.0 0.04 0.15 0.15 99 1000.7
20260902163728 58 65 2.0 11.0 0.04 0.15 0.15 99 1000.8
20260902163228 58 133 0.0 7.0 0.03 0.14 0.15 98 1001.0
20260902162728 58 137 0.0 8.0 0.03 0.14 0.14 98 1001.0
20260902162228 58 123 1.0 8.0 0.04 0.13 0.13 98 1001.1